EW7422 Weather Reports


Display with metric or nautical units.
time (UTC)temp
F
wind
direction
speed
MPH
gust
MPH
rain 1hr
in
rain 24hr
in
rain mn
in
humidity
%
barometer
mb
20260504023601 49 278 0.0 1.0 0.00 0.00 0.00 63 1020.5
20260504023101 50 278 0.0 1.0 0.00 0.00 0.00 62 1020.4
20260504022605 50 278 0.0 1.0 0.00 0.00 0.00 62 1020.3
20260504022101 50 278 0.0 2.0 0.00 0.00 0.00 63 1020.3
20260504021832 51 278 1.0 2.0 0.00 0.00 0.00 59 1020.3
20260504021100 51 278 1.0 2.0 0.00 0.00 0.00 57 1020.2
20260504020601 51 278 0.0 2.0 0.00 0.00 0.00 56 1020.1
20260504015601 51 278 0.0 2.0 0.00 0.00 0.00 55 1019.9
20260504015100 51 278 0.0 2.0 0.00 0.00 0.00 55 1019.8
20260504014600 52 278 1.0 2.0 0.00 0.00 0.00 54 1019.8
20260504014101 52 278 1.0 2.0 0.00 0.00 0.00 54 1019.7
20260504013601 52 286 0.0 1.0 0.00 0.00 0.00 54 1019.7
20260504013332 52 286 0.0 2.0 0.00 0.00 0.00 56 1019.7
20260504012601 52 286 0.0 2.0 0.00 0.00 0.00 55 1019.6
20260504012102 53 286 0.0 1.0 0.00 0.00 0.00 54 1019.6
20260504011832 54 286 0.0 1.0 0.00 0.00 0.00 54 1019.5
20260504011101 54 286 0.0 1.0 0.00 0.00 0.00 51 1019.5
20260504010831 55 286 0.0 2.0 0.00 0.00 0.00 51 1019.4
20260504010101 55 286 0.0 2.0 0.00 0.00 0.00 48 1019.3
20260504005601 55 286 0.0 0.0 0.00 0.00 0.00 53 1019.3
20260504005100 55 287 0.0 0.0 0.00 0.00 0.00 52 1019.3
20260504004601 56 287 0.0 0.0 0.00 0.00 0.00 50 1019.2
20260504004110 56 287 0.0 0.0 0.00 0.00 0.00 49 1019.2
20260504003839 56 287 0.0 0.0 0.00 0.00 0.00 53 1019.2
20260504003107 57 287 0.0 0.0 0.00 0.00 0.00 50 1019.0
20260504002604 58 288 0.0 0.0 0.00 0.00 0.00 51 1019.0
20260504002106 59 288 0.0 0.0 0.00 0.00 0.00 47 1019.0
20260504002102 58 288 0.0 0.0 0.00 0.00 0.00 50 1019.0
20260504001817 60 288 0.0 0.0 0.00 0.00 0.00 45 1018.9
20260504000600 61 7 0.0 2.0 0.00 0.00 0.00 42 1018.9
20260503235602 62 299 2.0 6.0 0.00 0.00 0.00 42 1018.9
20260503235106 64 237 1.0 5.0 0.00 0.00 0.00 42 1018.9
20260503235102 63 254 1.0 6.0 0.00 0.00 0.00 41 1018.9
20260503234102 64 251 1.0 4.0 0.00 0.00 0.00 42 1018.8
20260503233601 64 265 1.0 2.0 0.00 0.00 0.00 40 1018.7
20260503233102 64 273 1.0 4.0 0.00 0.00 0.00 40 1018.7
20260503232601 65 277 2.0 7.0 0.00 0.00 0.00 40 1018.7
20260503232102 65 244 2.0 7.0 0.00 0.00 0.00 40 1018.7
20260503231601 65 261 2.0 7.0 0.00 0.00 0.00 40 1018.6
20260503231103 66 14 2.0 4.0 0.00 0.00 0.00 40 1018.5
20260503230833 66 246 2.0 8.0 0.00 0.00 0.00 37 1018.5
20260503230333 66 286 2.0 8.0 0.00 0.00 0.00 40 1018.6
20260503225601 67 340 2.0 8.0 0.00 0.00 0.00 38 1018.6
20260503225102 67 296 2.0 8.0 0.00 0.00 0.00 39 1018.6
20260503224602 67 269 2.0 8.0 0.00 0.00 0.00 38 1018.6
20260503224558 67 263 2.0 6.0 0.00 0.00 0.00 38 1018.5
20260503223102 67 235 2.0 9.0 0.00 0.00 0.00 39 1018.5
20260503222601 68 242 2.0 6.0 0.00 0.00 0.00 36 1018.4
20260503222101 68 244 3.0 8.0 0.00 0.00 0.00 38 1018.6
20260503221331 68 253 3.0 8.0 0.00 0.00 0.00 35 1018.5
20260503221325 68 243 2.0 8.0 0.00 0.00 0.00 36 1018.6
20260503220100 69 254 2.0 8.0 0.00 0.00 0.00 35 1018.6
20260503215832 69 319 2.0 5.0 0.00 0.00 0.00 36 1018.7
20260503215101 69 285 2.0 5.0 0.00 0.00 0.00 35 1018.6
20260503214832 69 263 2.0 8.0 0.00 0.00 0.00 37 1018.6
20260503214101 68 299 2.0 8.0 0.00 0.00 0.00 36 1018.7
20260503213601 69 291 3.0 8.0 0.00 0.00 0.00 35 1018.8
20260503213101 69 246 3.0 8.0 0.00 0.00 0.00 35 1018.8
20260503212600 69 280 3.0 7.0 0.00 0.00 0.00 33 1018.8
20260503212100 69 357 2.0 7.0 0.00 0.00 0.00 32 1018.9
20260503211602 70 257 2.0 7.0 0.00 0.00 0.00 34 1018.9
20260503211102 69 259 3.0 9.0 0.00 0.00 0.00 35 1019.0
20260503210831 68 249 4.0 11.0 0.00 0.00 0.00 34 1019.0
20260503210101 68 246 4.0 11.0 0.00 0.00 0.00 32 1019.0
20260503205605 70 61 2.0 6.0 0.00 0.00 0.00 34 1019.1
20260503205601 69 242 3.0 7.0 0.00 0.00 0.00 31 1019.1
20260503204601 69 259 2.0 4.0 0.00 0.00 0.00 35 1019.1
20260503203602 70 260 2.0 8.0 0.00 0.00 0.00 33 1019.2
20260503203102 70 275 2.0 8.0 0.00 0.00 0.00 34 1019.3
20260503202601 69 335 1.0 4.0 0.00 0.00 0.00 32 1019.3
20260503202101 70 313 2.0 4.0 0.00 0.00 0.00 33 1019.4
20260503201542 69 251 1.0 4.0 0.00 0.00 0.00 33 1019.4
20260503201045 68 254 3.0 6.0 0.00 0.00 0.00 35 1019.7
20260503201041 68 295 2.0 6.0 0.00 0.00 0.00 34 1019.5
20260503200301 67 254 3.0 7.0 0.00 0.00 0.00 32 1019.8
20260503195530 67 240 3.0 7.0 0.00 0.00 0.00 32 1020.0
20260503195304 67 246 2.0 7.0 0.00 0.00 0.00 31 1020.0
20260503194529 67 282 3.0 8.0 0.00 0.00 0.00 31 1020.1
20260503194030 66 13 3.0 8.0 0.00 0.00 0.00 34 1020.2
20260503193529 67 239 3.0 8.0 0.00 0.00 0.00 34 1020.2
20260503193030 67 219 2.0 8.0 0.00 0.00 0.00 34 1020.3
20260503192801 66 262 2.0 6.0 0.00 0.00 0.00 33 1020.3
20260503192030 66 107 2.0 7.0 0.00 0.00 0.00 30 1020.5
20260503191528 67 290 3.0 7.0 0.00 0.00 0.00 34 1020.6
20260503191032 67 268 3.0 7.0 0.00 0.00 0.00 34 1020.7
20260503190529 66 329 3.0 8.0 0.00 0.00 0.00 38 1020.6
20260503190028 64 250 4.0 8.0 0.00 0.00 0.00 39 1020.7
20260503185529 65 277 4.0 9.0 0.00 0.00 0.00 36 1020.7
20260503185258 66 214 2.0 9.0 0.00 0.00 0.00 37 1020.8
20260503184527 66 230 2.0 5.0 0.00 0.00 0.00 36 1020.8
20260503184029 65 205 2.0 6.0 0.00 0.00 0.00 38 1020.9
20260503183743 64 180 3.0 10.0 0.00 0.00 0.00 43 1020.9
20260503183239 64 94 4.0 10.0 0.00 0.00 0.00 36 1021.1
20260503182509 64 244 4.0 8.0 0.00 0.00 0.00 39 1021.0
20260503182013 65 192 2.0 8.0 0.00 0.00 0.00 39 1021.1
20260503182009 64 256 4.0 8.0 0.00 0.00 0.00 39 1021.1
20260503181009 66 231 2.0 6.0 0.00 0.00 0.00 39 1021.2
20260503180509 65 225 2.0 7.0 0.00 0.00 0.00 41 1021.2
20260503180003 64 262 3.0 10.0 0.00 0.00 0.00 42 1021.2
20260503175503 64 289 2.0 10.0 0.00 0.00 0.00 39 1021.4
20260503175004 63 300 2.0 6.0 0.00 0.00 0.00 37 1021.4
20260503174501 62 192 2.0 6.0 0.00 0.00 0.00 39 1021.5
20260503174007 62 226 2.0 4.0 0.00 0.00 0.00 37 1021.5
20260503173501 62 311 2.0 4.0 0.00 0.00 0.00 37 1021.7
20260503173003 61 259 2.0 8.0 0.00 0.00 0.00 38 1021.7
20260503172502 61 240 3.0 8.0 0.00 0.00 0.00 37 1021.8
20260503172004 62 7 2.0 7.0 0.00 0.00 0.00 39 1021.9
20260503171733 61 281 3.0 7.0 0.00 0.00 0.00 37 1021.9
20260503171234 60 242 3.0 9.0 0.00 0.00 0.00 37 1022.1
20260503170502 60 229 2.0 9.0 0.00 0.00 0.00 39 1022.1
20260503151000 53 256 2.0 5.0 0.00 0.00 0.00 56 1023.4
20260503150500 53 245 3.0 8.0 0.00 0.00 0.00 58 1023.4
20260503131232 42 195 0.0 0.0 0.00 0.00 0.00 90 1023.3
20260503130501 41 195 0.0 0.0 0.00 0.00 0.00 92 1023.3
20260503110501 35 194 0.0 0.0 0.00 0.00 0.00 95 1021.7
20260503110232 35 194 0.0 0.0 0.00 0.00 0.00 95 1021.5
20260503100240 36 194 0.0 0.0 0.00 0.00 0.00 93 1021.0
20260503090501 37 194 0.0 0.0 0.00 0.00 0.00 91 1020.3
20260503081500 38 194 0.0 0.0 0.00 0.00 0.00 90 1020.0
20260503081003 38 194 0.0 0.0 0.00 0.00 0.00 90 1019.8
20260503080502 38 194 0.0 0.0 0.00 0.00 0.00 90 1019.7
20260503072501 39 194 0.0 0.0 0.00 0.00 0.00 89 1019.4
20260503072003 39 194 0.0 0.0 0.00 0.00 0.00 89 1019.4
20260503071501 39 194 0.0 1.0 0.00 0.00 0.00 88 1019.4
20260503071007 39 194 0.0 1.0 0.00 0.00 0.00 88 1019.3
20260503070732 39 194 0.0 1.0 0.00 0.00 0.00 88 1019.3
20260503055004 43 191 0.0 0.0 0.00 0.00 0.00 78 1018.9
20260503054501 43 191 0.0 0.0 0.00 0.00 0.00 78 1019.0
20260503054244 43 191 0.0 1.0 0.00 0.00 0.00 78 1019.0
20260503053731 44 191 0.0 2.0 0.00 0.00 0.00 79 1019.0
20260503053001 44 191 0.0 2.0 0.00 0.00 0.00 78 1019.0
20260503052502 44 191 0.0 1.0 0.00 0.00 0.00 78 1019.1
20260503052233 44 191 0.0 1.0 0.00 0.00 0.00 79 1019.1
20260503051501 43 191 0.0 0.0 0.00 0.00 0.00 80 1019.3
20260503051001 43 191 0.0 2.0 0.00 0.00 0.00 81 1019.3
20260503050502 43 191 0.0 2.0 0.00 0.00 0.00 81 1019.3
20260503050001 43 191 0.0 1.0 0.00 0.00 0.00 82 1019.3
20260503045502 43 191 0.0 0.0 0.00 0.00 0.00 80 1019.2
20260503045002 43 191 0.0 0.0 0.00 0.00 0.00 80 1019.1
20260503044500 43 191 0.0 0.0 0.00 0.00 0.00 80 1019.1
20260503044002 43 191 0.0 0.0 0.00 0.00 0.00 79 1019.0
20260503043505 43 191 0.0 0.0 0.00 0.00 0.00 79 1019.0
20260503043006 43 191 0.0 1.0 0.00 0.00 0.00 78 1019.0
20260503042504 43 191 0.0 2.0 0.00 0.00 0.00 78 1019.0
20260503042002 43 191 1.0 2.0 0.00 0.00 0.00 77 1018.9
20260503041504 44 191 1.0 2.0 0.00 0.00 0.00 76 1018.9
20260503041001 44 190 1.0 2.0 0.00 0.00 0.00 75 1018.8
20260503040504 45 190 1.0 2.0 0.00 0.00 0.00 76 1018.8
20260503040001 45 190 0.0 1.0 0.00 0.00 0.00 73 1018.6
20260503035504 44 190 0.0 0.0 0.00 0.00 0.00 75 1018.6
20260503035002 44 190 0.0 1.0 0.00 0.00 0.00 74 1018.6
20260503034504 44 190 0.0 1.0 0.00 0.00 0.00 74 1018.6
20260503034001 44 190 0.0 1.0 0.00 0.00 0.00 72 1018.6
20260503033504 44 190 0.0 1.0 0.00 0.00 0.00 72 1018.5
20260503033009 44 190 1.0 2.0 0.00 0.00 0.00 71 1018.4
20260503033004 44 190 1.0 2.0 0.00 0.00 0.00 71 1018.5
20260503032231 44 190 0.0 2.0 0.00 0.00 0.00 71 1018.3
20260503031503 44 190 0.0 2.0 0.00 0.00 0.00 72 1018.3
20260503031233 44 190 0.0 2.0 0.00 0.00 0.00 71 1018.4
20260503030735 44 190 0.0 2.0 0.00 0.00 0.00 72 1018.4
20260503030001 45 190 0.0 2.0 0.00 0.00 0.00 71 1018.4
20260503025504 45 190 0.0 2.0 0.00 0.00 0.00 70 1018.2
20260503025000 45 190 0.0 2.0 0.00 0.00 0.00 68 1018.1
20260503024503 46 190 0.0 2.0 0.00 0.00 0.00 67 1018.1